Delta Virtual Airport Information Service

Ontario International Airport

ICAO: KONT Country: United States
Latitude: 34.056 Longitude: -117.601
Latest Arrival : SWA1423 (A) (KLAS-KONT) Latest Departure : UPS56 (1B) (KONT-PHNL)


WX CaptureLIVE
Data provided by noaa.gov | Fetched at 08:39:07

METAR : KONT 041314Z 26005KT 3SM BR FEW006 FEW120 18/17 A2995 RMK AO2 FU FEW120 T01830167

TAF : KONT 041122Z 0412/0518 VRB05KT P6SM SKC FM042000 26012G20KT P6SM SKC FM050500 VRB05KT P6SM SKC


Runway Data for KONT
Data provided by openaviationdata.com

Runway ID Mag Var Hdg Length Elevation Surface ILS Freq ILS Id ILS Slope
08L 14 75° 12185 ft 944 ft Asphalt 109.7 IAOD 3
08R 14 75° 10187 ft 944 ft Concrete -- -- --
26L 14 255° 10187 ft 944 ft Concrete 111.35 ITWO 3
26R 14 255° 12185 ft 944 ft Asphalt 109.7 IONT 3

Ontario International Airport, United States
Use only for reference purposes



Not for navigational purposes.